N5MDT Weather Reports


time (UTC)temp
F
wind
direction
speed
knots
gust
knots
rain 1hr
in
rain 24hr
in
rain mn
in
humidity
%
barometer
mb
20260503040823 66 300 0.0 0.0 0.00 0.00 0.00 73 1021.8
20260503035822 66 300 0.0 0.0 0.00 0.00 0.00 73 1021.7
20260503034822 66 300 0.0 0.0 0.00 0.00 0.00 72 1021.7
20260503033822 67 300 0.0 0.0 0.00 0.00 0.00 72 1021.6
20260503032822 67 300 0.0 0.0 0.00 0.00 0.00 70 1021.4
20260503031822 68 300 0.0 0.0 0.00 0.00 0.00 70 1021.3
20260503030822 68 300 0.0 0.0 0.00 0.00 0.00 70 1021.1
20260503025821 69 300 0.0 0.0 0.00 0.00 0.00 69 1021.2
20260503024822 69 300 0.0 0.0 0.00 0.00 0.00 67 1021.2
20260503023851 70 300 0.0 0.0 0.00 0.00 0.00 66 1021.1
20260503022821 70 300 0.0 0.0 0.00 0.00 0.00 65 1020.8
20260503021821 71 300 0.0 0.0 0.00 0.00 0.00 64 1020.7
20260503020821 71 300 0.0 0.0 0.00 0.00 0.00 63 1020.7
20260503015821 72 300 0.0 0.0 0.00 0.00 0.00 62 1020.5
20260503014821 73 300 0.0 0.0 0.00 0.00 0.00 62 1020.4
20260503013821 73 300 0.0 0.0 0.00 0.00 0.00 60 1020.2
20260503012821 74 300 0.0 0.0 0.00 0.00 0.00 60 1020.3
20260503011821 75 300 0.0 0.0 0.00 0.00 0.00 58 1020.2
20260503010821 76 300 0.0 0.0 0.00 0.00 0.00 56 1020.1
20260503005820 77 300 0.0 0.0 0.00 0.00 0.00 53 1020.1
20260503004820 78 300 0.0 0.0 0.00 0.00 0.00 51 1020.0
20260503003850 79 300 0.0 0.0 0.00 0.00 0.00 51 1020.0
20260503002820 80 300 0.0 0.0 0.00 0.00 0.00 49 1019.8
20260503001820 81 300 0.0 0.0 0.00 0.00 0.00 47 1019.8
20260503000820 82 300 0.0 2.6 0.00 0.00 0.00 45 1019.7
20260502235820 83 301 0.9 4.3 0.00 0.00 0.00 46 1019.5
20260502234820 83 308 0.0 2.6 0.00 0.00 0.00 45 1019.5
20260502233820 84 315 0.9 2.6 0.00 0.00 0.00 45 1019.5
20260502232850 84 325 2.6 3.5 0.00 0.00 0.00 43 1019.5
20260502231850 85 348 0.0 3.5 0.00 0.00 0.00 46 1019.5
20260502230819 85 313 1.7 3.5 0.00 0.00 0.00 46 1019.5
20260502225850 84 321 0.9 3.5 0.00 0.00 0.00 45 1019.5
20260502224819 83 5 0.9 3.5 0.00 0.00 0.00 45 1019.5
20260502223819 83 327 1.7 3.5 0.00 0.00 0.00 46 1019.5
20260502222849 82 321 0.9 2.6 0.00 0.00 0.00 47 1019.6
20260502221849 82 333 0.0 2.6 0.00 0.00 0.00 48 1019.6
20260502220849 82 322 0.9 2.6 0.00 0.00 0.00 49 1019.6
20260502215849 82 19 0.0 0.9 0.00 0.00 0.00 49 1019.7
20260502214819 82 328 0.9 3.5 0.00 0.00 0.00 50 1019.8
20260502213819 82 338 0.0 1.7 0.00 0.00 0.00 49 1019.9
20260502212849 82 330 0.9 4.3 0.00 0.00 0.00 50 1019.9
20260502211848 82 319 1.7 2.6 0.00 0.00 0.00 51 1019.8
20260502210818 81 331 0.9 2.6 0.00 0.00 0.00 51 1019.9
20260502205818 80 292 1.7 1.7 0.00 0.00 0.00 53 1020.0
20260502204848 80 32 0.0 1.7 0.00 0.00 0.00 55 1020.0
20260502203848 80 57 0.0 0.9 0.00 0.00 0.00 55 1020.0
20260502202818 78 309 0.0 3.5 0.00 0.00 0.00 56 1020.1
20260502201818 78 34 0.0 5.2 0.00 0.00 0.00 56 1020.3
20260502200848 77 336 0.0 1.7 0.00 0.00 0.00 58 1020.4
20260502195833 77 49 0.9 5.2 0.00 0.00 0.00 58 1020.6
20260502194848 76 315 2.6 3.5 0.00 0.00 0.00 58 1020.5
20260502193848 75 355 0.0 2.6 0.00 0.00 0.00 61 1020.6
20260502192833 74 22 0.0 4.3 0.00 0.00 0.00 61 1020.8
20260502191847 74 11 0.0 3.5 0.00 0.00 0.00 61 1020.9
20260502190847 74 320 1.7 7.8 0.00 0.00 0.00 61 1021.0
20260502185817 74 344 0.0 4.3 0.00 0.00 0.00 61 1021.1
20260502184847 73 5 0.0 2.6 0.00 0.00 0.00 63 1021.2
20260502183817 72 343 0.0 1.7 0.00 0.00 0.00 63 1021.2
20260502182847 72 20 0.0 2.6 0.00 0.00 0.00 64 1021.4
20260502181847 71 347 0.0 1.7 0.00 0.00 0.00 64 1021.5
20260502180817 71 51 0.9 3.5 0.00 0.00 0.00 66 1021.6
20260502163846 65 75 0.0 3.5 0.00 0.00 0.00 76 1022.2
20260502162846 64 30 0.0 4.3 0.00 0.00 0.00 76 1022.2
20260502161816 64 319 0.9 3.5 0.00 0.00 0.00 78 1022.3
20260502160815 63 47 0.9 3.5 0.00 0.00 0.00 79 1022.1
20260502151816 60 40 0.0 3.5 0.00 0.00 0.00 84 1021.8
20260502150815 60 355 1.7 7.8 0.00 0.00 0.00 84 1021.9
20260502122844 53 307 0.0 0.0 0.00 0.00 0.00 89 1020.1
20260502121814 53 307 0.0 0.0 0.00 0.00 0.00 89 1020.0
20260502120845 53 307 0.0 0.0 0.00 0.00 0.00 89 1020.0
20260502115844 53 307 0.0 0.0 0.00 0.00 0.00 89 1019.9
20260502114844 53 307 0.0 0.0 0.00 0.00 0.00 89 1019.7
20260502113844 54 307 0.0 0.0 0.00 0.00 0.00 88 1019.6
20260502112844 54 307 0.0 0.9 0.00 0.00 0.00 88 1019.5
20260502111844 54 307 0.0 1.7 0.00 0.00 0.00 88 1019.4
20260502110844 54 307 0.0 1.7 0.00 0.00 0.00 88 1019.3
20260502105844 54 307 0.0 3.5 0.00 0.00 0.00 88 1019.0
20260502104844 54 316 0.0 4.3 0.00 0.00 0.00 89 1018.9
20260502103844 54 300 4.3 4.3 0.00 0.00 0.00 89 1018.9
20260502102844 54 320 0.0 1.7 0.00 0.00 0.00 89 1019.0
20260502101844 54 320 0.0 2.6 0.00 0.00 0.00 89 1018.8
20260502100844 54 327 0.0 1.7 0.00 0.00 0.00 89 1018.8
20260502090843 54 330 0.9 1.7 0.00 0.00 0.00 88 1017.9
20260502070842 56 67 0.0 0.0 0.00 0.00 0.00 88 1017.5
20260502065842 56 40 0.0 0.0 0.00 0.00 0.00 88 1017.3
20260502064842 56 47 0.0 0.0 0.00 0.00 0.00 88 1017.5
20260502063842 56 24 0.0 0.0 0.00 0.00 0.00 88 1017.5
20260502062842 56 5 0.0 0.0 0.00 0.00 0.00 88 1017.6
20260502061842 56 40 0.0 0.0 0.00 0.00 0.00 88 1017.6
20260502060842 56 47 0.0 0.9 0.00 0.00 0.00 88 1017.7
20260502055841 56 311 0.0 1.7 0.00 0.00 0.00 88 1017.6
20260502054841 56 329 0.9 1.7 0.00 0.00 0.00 88 1017.6
20260502053841 56 34 0.9 3.5 0.00 0.00 0.00 89 1017.3
20260502052841 56 49 1.7 1.7 0.00 0.00 0.00 88 1017.5
20260502051841 56 65 0.9 3.5 0.00 0.00 0.00 88 1017.4
20260502050841 56 56 0.0 2.6 0.00 0.00 0.00 88 1017.5
20260502045841 56 51 1.7 3.5 0.00 0.00 0.00 88 1017.5
20260502044841 56 63 1.7 4.3 0.00 0.00 0.00 89 1017.5
20260502043840 56 345 0.0 1.7 0.00 0.00 0.00 89 1017.4
20260502042826 56 313 3.5 3.5 0.00 0.00 0.00 89 1017.5
20260502041827 56 5 1.7 7.8 0.00 0.00 0.00 89 1017.5